QPF
0.18 0.18 0.15 0.14 0.14 0.13 0.10 0.07 0.06 0.04 0.04 0.04 0.05 0.05 0.05 0.05 0.05 0.04 0.04 0.05 0.06 0.06 0.05 0.05 0.05 0.06 0.06 0.06 0.08 0.08 0.07 0.07 0.07 0.06 0.05 0.04 0.04 0.09 0.13 0.15 0.14 0.13 0.10
0.24 0.19 0.18 0.12 0.10 0.07 0.05 0.04 0.03 0.02 0.03 0.04 0.05 0.05 0.05 0.05 0.05 0.03 0.04 0.06 0.08 0.08 0.06 0.05 0.05 0.06 0.06 0.06 0.08 0.09 0.09 0.07 0.07 0.06 0.05 0.04 0.04 0.06 0.10 0.13 0.12 0.13 0.15
0.21 0.21 0.17 0.11 0.08 0.07 0.05 0.05 0.05 0.04 0.03 0.03 0.04 0.04 0.04 0.03 0.03 0.03 0.04 0.08 0.10 0.09 0.08 0.08 0.07 0.08 0.08 0.07 0.08 0.07 0.06 0.05 0.06 0.08 0.06 0.05 0.03 0.03 0.05 0.09 0.11 0.10 0.11
0.20 0.16 0.13 0.11 0.08 0.10 0.08 0.09 0.08 0.05 0.04 0.04 0.04 0.04 0.05 0.06 0.06 0.07 0.08 0.09 0.08 0.08 0.09 0.10 0.11 0.12 0.12 0.09 0.08 0.07 0.06 0.05 0.04 0.05 0.06 0.06 0.04 0.03 0.03 0.05 0.10 0.11 0.10
0.18 0.18 0.15 0.10 0.13 0.15 0.10 0.08 0.06 0.05 0.04 0.03 0.03 0.04 0.04 0.05 0.06 0.06 0.07 0.10 0.10 0.10 0.10 0.10 0.13 0.13 0.10 0.08 0.07 0.06 0.07 0.06 0.05 0.04 0.04 0.04 0.04 0.04 0.03 0.03 0.05 0.07 0.07
0.16 0.18 0.13 0.14 0.20 0.14 0.07 0.05 0.05 0.05 0.05 0.05 0.04 0.04 0.05 0.05 0.04 0.06 0.07 0.08 0.09 0.10 0.11 0.11 0.11 0.11 0.09 0.08 0.07 0.07 0.07 0.06 0.06 0.05 0.05 0.04 0.04 0.04 0.04 0.03 0.04 0.05 0.06
0.13 0.14 0.14 0.11 0.13 0.10 0.06 0.04 0.05 0.06 0.06 0.06 0.06 0.07 0.07 0.06 0.06 0.07 0.07 0.09 0.12 0.14 0.14 0.10 0.09 0.07 0.07 0.07 0.07 0.06 0.06 0.05 0.05 0.05 0.05 0.04 0.03 0.04 0.04 0.04 0.05 0.05 0.06
0.09 0.10 0.09 0.11 0.13 0.07 0.05 0.05 0.05 0.06 0.06 0.05 0.05 0.05 0.05 0.05 0.05 0.05 0.06 0.08 0.09 0.08 0.08 0.07 0.07 0.06 0.07 0.06 0.06 0.05 0.04 0.04 0.03 0.03 0.03 0.03 0.03 0.04 0.03 0.04 0.04 0.05 0.05
0.11 0.14 0.14 0.09 0.07 0.05 0.05 0.04 0.05 0.05 0.04 0.04 0.03 0.04 0.04 0.03 0.03 0.03 0.03 0.03 0.04 0.03 0.04 0.06 0.09 0.08 0.07 0.06 0.05 0.04 0.04 0.03 0.02 0.02 0.02 0.01 0.02 0.03 0.03 0.03 0.03 0.05 0.05
0.10 0.12 0.17 0.10 0.07 0.06 0.04 0.03 0.04 0.03 0.03 0.04 0.03 0.02 0.02 0.02 0.02 0.02 0.02 0.03 0.03 0.03 0.04 0.06 0.06 0.06 0.06 0.06 0.05 0.04 0.03 0.03 0.02 0.02 0.02 0.02 0.02 0.02 0.04 0.04 0.05 0.05 0.05
0.06 0.07 0.07 0.08 0.07 0.06 0.05 0.04 0.03 0.03 0.03 0.02 0.01 0.01 0.01 0.01 0.02 0.01 0.02 0.02 0.02 0.02 0.03 0.04 0.05 0.05 0.07 0.07 0.06 0.05 0.04 0.03 0.02 0.02 0.02 0.02 0.02 0.02 0.03 0.05 0.05 0.06 0.06
0.08 0.06 0.05 0.05 0.03 0.03 0.03 0.03 0.03 0.02 0.02 0.02 0.01 0.01 0.01 0.01 0.01 0.01 0.01 0.01 0.02 0.02 0.03 0.04 0.04 0.05 0.04 0.04 0.05 0.05 0.03 0.03 0.02 0.02 0.02 0.02 0.02 0.03 0.03 0.04 0.05 0.05 0.05
0.08 0.06 0.05 0.03 0.03 0.02 0.03 0.03 0.03 0.03 0.03 0.03 0.02 0.01 0.01 0.01 0.01 0.01 0.01 0.01 0.01 0.02 0.03 0.02 0.02 0.03 0.02 0.02 0.03 0.02 0.01 0.01 0.01 0.01 0.01 0.01 0.02 0.02 0.03 0.04 0.05 0.05 0.06
0.04 0.03 0.03 0.03 0.03 0.03 0.03 0.03 0.03 0.03 0.02 0.02 0.02 0.01 0.00 0.01 0.01 0.01 0.01 0.01 0.01 0.02 0.02 0.02 0.02 0.02 0.02 0.02 0.01 0.01 0.00 0.01 0.01 0.01 0.01 0.01 0.01 0.02 0.02 0.04 0.05 0.06 0.05
0.03 0.02 0.02 0.02 0.02 0.03 0.03 0.04 0.04 0.03 0.02 0.02 0.02 0.01 0.01 0.01 0.01 0.01 0.02 0.02 0.01 0.01 0.01 0.01 0.01 0.01 0.01 0.01 0.01 0.01 0.01 0.01 0.01 0.01 0.00 0.00 0.01 0.02 0.03 0.04 0.04 0.05 0.05
0.02 0.02 0.03 0.03 0.02 0.02 0.03 0.03 0.04 0.03 0.03 0.03 0.02 0.02 0.02 0.02 0.02 0.02 0.02 0.02 0.01 0.01 0.00 0.01 0.01 0.01 0.01 0.01 0.01 0.02 0.01 0.02 0.02 0.01 0.01 0.00 0.00 0.01 0.02 0.02 0.02 0.03 0.03
0.01 0.01 0.02 0.01 0.01 0.02 0.03 0.03 0.04 0.05 0.05 0.03 0.03 0.03 0.02 0.02 0.02 0.01 0.01 0.01 0.01 0.01 0.00 0.00 0.01 0.01 0.01 0.01 0.01 0.01 0.01 0.02 0.02 0.02 0.01 0.01 0.00 0.01 0.02 0.02 0.01 0.02 0.02
0.01 0.01 0.01 0.01 0.01 0.01 0.03 0.04 0.05 0.06 0.06 0.04 0.04 0.04 0.03 0.02 0.02 0.02 0.01 0.01 0.01 0.01 0.01 0.01 0.01 0.01 0.01 0.01 0.01 0.01 0.01 0.02 0.01 0.01 0.01 0.01 0.01 0.01 0.02 0.02 0.02 0.02 0.02
0.01 0.00 0.00 0.01 0.01 0.01 0.02 0.04 0.05 0.07 0.09 0.08 0.06 0.04 0.03 0.02 0.03 0.02 0.02 0.02 0.01 0.01 0.01 0.01 0.01 0.01 0.01 0.02 0.02 0.01 0.01 0.01 0.01 0.01 0.01 0.01 0.01 0.02 0.02 0.02 0.03 0.02 0.02
0.01 0.01 0.01 0.01 0.03 0.03 0.04 0.08 0.08 0.07 0.10 0.08 0.06 0.05 0.03 0.03 0.03 0.03 0.02 0.02 0.02 0.02 0.02 0.02 0.02 0.03 0.03 0.03 0.03 0.02 0.01 0.01 0.01 0.01 0.01 0.01 0.01 0.01 0.02 0.03 0.04 0.04 0.03
0.01 0.01 0.02 0.03 0.03 0.03 0.05 0.10 0.13 0.11 0.08 0.05 0.04 0.03 0.03 0.03 0.03 0.03 0.02 0.02 0.02 0.02 0.02 0.02 0.02 0.01 0.01 0.01 0.01 0.01 0.01 0.01 0.01 0.01 0.01 0.01 0.01 0.01 0.01 0.01 0.02 0.03 0.05
0.01 0.01 0.03 0.05 0.03 0.03 0.03 0.06 0.08 0.08 0.07 0.04 0.02 0.03 0.03 0.02 0.02 0.01 0.01 0.01 0.01 0.01 0.01 0.01 0.01 0.01 0.01 0.01 0.01 0.01 0.01 0.01 0.01 0.01 0.01 0.01 0.01 0.01 0.01 0.01 0.01 0.03 0.04
0.01 0.02 0.02 0.02 0.02 0.02 0.04 0.05 0.04 0.03 0.03 0.03 0.03 0.03 0.03 0.01 0.01 0.00 0.00 0.00 0.00 0.00 0.01 0.01 0.01 0.01 0.01 0.02 0.02 0.01 0.01 0.01 0.01 0.01 0.02 0.02 0.02 0.01 0.00 0.01 0.01 0.02 0.03
0.01 0.01 0.02 0.02 0.02 0.01 0.03 0.03 0.02 0.02 0.01 0.02 0.02 0.02 0.01 0.00 0.00 0.00 0.00 0.00 0.00 0.00 0.00 0.00 0.01 0.01 0.01 0.01 0.02 0.02 0.02 0.01 0.00 0.01 0.01 0.02 0.02 0.01 0.01 0.01 0.02 0.01 0.01
0.01 0.01 0.01 0.01 0.01 0.01 0.02 0.02 0.02 0.02 0.02 0.01 0.01 0.01 0.01 0.00 0.00 0.00 0.00 0.00 0.00 0.00 0.00 0.00 0.00 0.00 0.00 0.00 0.01 0.01 0.02 0.02 0.01 0.01 0.01 0.01 0.01 0.01 0.01 0.01 0.03 0.04 0.03
0.00 0.00 0.00 0.01 0.01 0.02 0.02 0.01 0.02 0.03 0.02 0.02 0.01 0.01 0.01 0.01 0.01 0.00 0.00 0.00 0.00 0.00 0.00 0.00 0.00 0.00 0.00 0.00 0.00 0.00 0.01 0.01 0.01 0.01 0.01 0.01 0.01 0.01 0.01 0.01 0.02 0.03 0.03
MSLP
1011.67 1011.58 1011.46 1011.31 1011.16 1011.04 1010.97 1011.00 1011.15 1011.42 1011.78 1012.19 1012.60 1012.95 1013.19 1013.31 1013.30 1013.20 1013.04 1012.88 1012.77 1012.76 1012.87 1013.09 1013.41 1013.79 1014.19 1014.58 1014.91 1015.18 1015.37 1015.48 1015.53 1015.52 1015.46 1015.36 1015.22 1015.07 1014.90 1014.73 1014.56 1014.41 1014.27
1011.05 1011.07 1011.06 1011.01 1010.93 1010.86 1010.83 1010.89 1011.07 1011.36 1011.75 1012.19 1012.60 1012.94 1013.16 1013.22 1013.13 1012.95 1012.72 1012.51 1012.38 1012.38 1012.54 1012.83 1013.24 1013.70 1014.18 1014.62 1015.00 1015.29 1015.49 1015.61 1015.67 1015.68 1015.65 1015.59 1015.50 1015.38 1015.22 1015.02 1014.79 1014.53 1014.24
1010.42 1010.56 1010.68 1010.75 1010.76 1010.76 1010.79 1010.88 1011.08 1011.40 1011.80 1012.23 1012.65 1012.97 1013.16 1013.18 1013.05 1012.82 1012.55 1012.32 1012.19 1012.22 1012.41 1012.75 1013.21 1013.72 1014.24 1014.71 1015.09 1015.39 1015.59 1015.72 1015.79 1015.83 1015.84 1015.83 1015.78 1015.68 1015.52 1015.28 1014.95 1014.55 1014.09
1009.87 1010.12 1010.37 1010.55 1010.67 1010.75 1010.83 1010.95 1011.17 1011.49 1011.89 1012.32 1012.73 1013.04 1013.21 1013.23 1013.09 1012.85 1012.58 1012.36 1012.24 1012.28 1012.49 1012.86 1013.33 1013.85 1014.36 1014.81 1015.18 1015.46 1015.65 1015.77 1015.86 1015.93 1015.99 1016.03 1016.01 1015.94 1015.76 1015.46 1015.03 1014.47 1013.81
1009.49 1009.83 1010.17 1010.46 1010.67 1010.82 1010.94 1011.09 1011.32 1011.63 1012.01 1012.44 1012.84 1013.15 1013.34 1013.37 1013.26 1013.05 1012.81 1012.62 1012.52 1012.58 1012.79 1013.14 1013.58 1014.06 1014.52 1014.92 1015.24 1015.48 1015.65 1015.77 1015.87 1015.98 1016.07 1016.15 1016.18 1016.11 1015.91 1015.55 1015.02 1014.31 1013.46
1009.32 1009.72 1010.13 1010.50 1010.78 1010.99 1011.15 1011.31 1011.53 1011.82 1012.19 1012.59 1012.99 1013.32 1013.53 1013.60 1013.55 1013.40 1013.21 1013.05 1012.98 1013.04 1013.22 1013.53 1013.91 1014.31 1014.69 1015.02 1015.27 1015.45 1015.59 1015.70 1015.82 1015.95 1016.08 1016.20 1016.25 1016.19 1015.98 1015.57 1014.95 1014.13 1013.14
1009.37 1009.80 1010.27 1010.69 1011.02 1011.26 1011.44 1011.61 1011.81 1012.08 1012.42 1012.81 1013.20 1013.54 1013.78 1013.91 1013.92 1013.83 1013.71 1013.60 1013.55 1013.59 1013.74 1013.98 1014.27 1014.58 1014.86 1015.09 1015.26 1015.39 1015.49 1015.59 1015.71 1015.86 1016.02 1016.16 1016.24 1016.19 1015.97 1015.54 1014.88 1013.99 1012.92
1009.61 1010.06 1010.56 1011.02 1011.38 1011.64 1011.83 1011.98 1012.16 1012.40 1012.71 1013.08 1013.45 1013.80 1014.08 1014.25 1014.32 1014.30 1014.23 1014.16 1014.12 1014.15 1014.25 1014.42 1014.62 1014.82 1015.00 1015.14 1015.23 1015.30 1015.36 1015.44 1015.56 1015.71 1015.89 1016.05 1016.14 1016.11 1015.90 1015.48 1014.82 1013.93 1012.85
1009.98 1010.45 1010.97 1011.44 1011.82 1012.08 1012.27 1012.42 1012.58 1012.78 1013.06 1013.39 1013.75 1014.09 1014.38 1014.58 1014.69 1014.72 1014.70 1014.66 1014.63 1014.64 1014.70 1014.80 1014.91 1015.02 1015.11 1015.17 1015.20 1015.21 1015.23 1015.29 1015.39 1015.53 1015.70 1015.86 1015.96 1015.95 1015.77 1015.38 1014.77 1013.95 1012.93
1010.42 1010.90 1011.42 1011.90 1012.27 1012.54 1012.73 1012.86 1013.01 1013.19 1013.43 1013.72 1014.05 1014.37 1014.65 1014.86 1014.99 1015.05 1015.05 1015.03 1015.00 1015.00 1015.02 1015.07 1015.12 1015.17 1015.19 1015.19 1015.17 1015.14 1015.12 1015.14 1015.21 1015.32 1015.46 1015.60 1015.70 1015.69 1015.55 1015.23 1014.71 1014.00 1013.12
1010.86 1011.35 1011.86 1012.32 1012.69 1012.95 1013.13 1013.27 1013.40 1013.56 1013.78 1014.04 1014.33 1014.61 1014.87 1015.06 1015.18 1015.24 1015.25 1015.23 1015.21 1015.20 1015.20 1015.22 1015.24 1015.24 1015.23 1015.20 1015.14 1015.08 1015.03 1015.01 1015.03 1015.09 1015.18 1015.28 1015.35 1015.35 1015.24 1015.00 1014.60 1014.04 1013.32
1011.25 1011.73 1012.22 1012.65 1013.00 1013.25 1013.43 1013.57 1013.70 1013.86 1014.06 1014.29 1014.55 1014.79 1015.00 1015.16 1015.25 1015.29 1015.29 1015.27 1015.24 1015.23 1015.22 1015.23 1015.24 1015.24 1015.22 1015.18 1015.11 1015.02 1014.94 1014.88 1014.84 1014.84 1014.87 1014.90 1014.93 1014.92 1014.84 1014.68 1014.40 1013.99 1013.47
1011.56 1012.02 1012.47 1012.86 1013.18 1013.42 1013.59 1013.74 1013.89 1014.06 1014.25 1014.46 1014.68 1014.88 1015.05 1015.16 1015.21 1015.22 1015.20 1015.16 1015.13 1015.11 1015.11 1015.13 1015.15 1015.16 1015.15 1015.11 1015.05 1014.96 1014.85 1014.75 1014.66 1014.59 1014.54 1014.50 1014.48 1014.45 1014.38 1014.28 1014.10 1013.84 1013.49
1011.80 1012.22 1012.61 1012.95 1013.22 1013.44 1013.62 1013.78 1013.95 1014.14 1014.34 1014.54 1014.74 1014.90 1015.02 1015.08 1015.10 1015.06 1015.01 1014.95 1014.91 1014.89 1014.90 1014.93 1014.97 1015.00 1015.01 1015.00 1014.94 1014.86 1014.74 1014.61 1014.47 1014.34 1014.22 1014.12 1014.03 1013.97 1013.91 1013.84 1013.74 1013.60 1013.40
1011.98 1012.34 1012.67 1012.94 1013.17 1013.37 1013.54 1013.73 1013.92 1014.13 1014.35 1014.56 1014.74 1014.87 1014.95 1014.97 1014.94 1014.87 1014.78 1014.70 1014.64 1014.61 1014.62 1014.66 1014.71 1014.77 1014.81 1014.82 1014.79 1014.72 1014.61 1014.46 1014.29 1014.11 1013.94 1013.78 1013.64 1013.54 1013.47 1013.41 1013.36 1013.30 1013.20
1012.13 1012.43 1012.69 1012.91 1013.09 1013.26 1013.44 1013.63 1013.85 1014.09 1014.32 1014.54 1014.71 1014.83 1014.88 1014.86 1014.79 1014.68 1014.56 1014.45 1014.37 1014.33 1014.33 1014.37 1014.43 1014.50 1014.56 1014.60 1014.59 1014.54 1014.45 1014.31 1014.13 1013.93 1013.73 1013.52 1013.35 1013.20 1013.10 1013.04 1013.01 1012.99 1012.95
1012.25 1012.52 1012.73 1012.89 1013.04 1013.19 1013.37 1013.57 1013.81 1014.06 1014.31 1014.53 1014.70 1014.80 1014.83 1014.79 1014.69 1014.56 1014.41 1014.27 1014.17 1014.10 1014.09 1014.11 1014.16 1014.23 1014.30 1014.35 1014.38 1014.35 1014.29 1014.17 1014.00 1013.81 1013.59 1013.37 1013.16 1012.98 1012.84 1012.76 1012.71 1012.69 1012.66
1012.37 1012.62 1012.80 1012.94 1013.08 1013.22 1013.40 1013.61 1013.85 1014.11 1014.36 1014.58 1014.74 1014.83 1014.85 1014.79 1014.67 1014.52 1014.36 1014.20 1014.07 1013.98 1013.93 1013.93 1013.96 1014.01 1014.08 1014.13 1014.17 1014.17 1014.13 1014.04 1013.91 1013.73 1013.51 1013.28 1013.05 1012.83 1012.66 1012.53 1012.44 1012.39 1012.35
1012.47 1012.73 1012.92 1013.08 1013.22 1013.37 1013.56 1013.77 1014.01 1014.26 1014.50 1014.70 1014.84 1014.92 1014.92 1014.86 1014.74 1014.58 1014.41 1014.24 1014.10 1013.98 1013.90 1013.86 1013.85 1013.88 1013.92 1013.96 1014.00 1014.01 1014.00 1013.93 1013.82 1013.66 1013.45 1013.21 1012.95 1012.70 1012.47 1012.28 1012.14 1012.04 1011.97
1012.53 1012.84 1013.09 1013.28 1013.46 1013.64 1013.83 1014.04 1014.27 1014.50 1014.71 1014.88 1015.00 1015.06 1015.05 1014.99 1014.87 1014.72 1014.55 1014.38 1014.23 1014.09 1013.98 1013.90 1013.85 1013.83 1013.83 1013.85 1013.87 1013.88 1013.87 1013.82 1013.72 1013.56 1013.35 1013.09 1012.80 1012.50 1012.21 1011.96 1011.74 1011.58 1011.47
1012.53 1012.93 1013.25 1013.52 1013.76 1013.97 1014.18 1014.39 1014.60 1014.79 1014.96 1015.09 1015.18 1015.21 1015.20 1015.14 1015.03 1014.90 1014.74 1014.58 1014.42 1014.26 1014.12 1014.01 1013.91 1013.84 1013.80 1013.77 1013.76 1013.75 1013.72 1013.66 1013.55 1013.39 1013.15 1012.86 1012.53 1012.17 1011.81 1011.47 1011.19 1010.96 1010.79
1012.48 1012.97 1013.39 1013.74 1014.05 1014.31 1014.55 1014.75 1014.93 1015.09 1015.21 1015.30 1015.35 1015.36 1015.33 1015.26 1015.17 1015.05 1014.92 1014.77 1014.61 1014.44 1014.28 1014.13 1013.98 1013.87 1013.77 1013.69 1013.64 1013.58 1013.52 1013.43 1013.29 1013.09 1012.82 1012.49 1012.09 1011.66 1011.23 1010.82 1010.45 1010.16 1009.95
1012.36 1012.95 1013.46 1013.91 1014.29 1014.61 1014.87 1015.07 1015.23 1015.35 1015.42 1015.46 1015.47 1015.45 1015.40 1015.34 1015.25 1015.15 1015.02 1014.88 1014.72 1014.55 1014.37 1014.18 1014.00 1013.83 1013.68 1013.55 1013.44 1013.34 1013.23 1013.10 1012.91 1012.67 1012.35 1011.96 1011.51 1011.02 1010.51 1010.02 1009.59 1009.24 1008.99
1012.21 1012.87 1013.47 1014.00 1014.44 1014.81 1015.09 1015.30 1015.44 1015.53 1015.56 1015.56 1015.53 1015.48 1015.41 1015.33 1015.24 1015.14 1015.02 1014.88 1014.72 1014.53 1014.32 1014.10 1013.88 1013.67 1013.47 1013.29 1013.13 1012.98 1012.83 1012.65 1012.43 1012.14 1011.78 1011.35 1010.84 1010.30 1009.73 1009.19 1008.71 1008.32 1008.04
1012.03 1012.74 1013.40 1013.99 1014.49 1014.89 1015.20 1015.42 1015.55 1015.61 1015.62 1015.59 1015.52 1015.44 1015.35 1015.25 1015.15 1015.03 1014.90 1014.74 1014.56 1014.35 1014.11 1013.86 1013.60 1013.35 1013.11 1012.89 1012.69 1012.51 1012.32 1012.11 1011.86 1011.55 1011.16 1010.70 1010.18 1009.61 1009.02 1008.45 1007.94 1007.52 1007.22
1011.85 1012.58 1013.27 1013.89 1014.42 1014.85 1015.18 1015.41 1015.55 1015.61 1015.60 1015.55 1015.47 1015.37 1015.25 1015.13 1014.99 1014.84 1014.68 1014.49 1014.27 1014.02 1013.75 1013.46 1013.17 1012.88 1012.61 1012.37 1012.15 1011.94 1011.73 1011.51 1011.26 1010.95 1010.57 1010.12 1009.61 1009.05 1008.47 1007.91 1007.40 1006.97 1006.66
Thickness
5745 5744 5741 5740 5737 5734 5730 5727 5724 5722 5719 5715 5711 5707 5703 5701 5698 5695 5693 5691 5689 5686 5683 5680 5677 5675 5672 5670 5669 5667 5664 5662 5662 5659 5658 5659 5662 5663 5663 5664 5665 5666 5667
5736 5734 5734 5735 5731 5727 5723 5721 5719 5717 5714 5711 5706 5703 5699 5695 5692 5689 5686 5684 5681 5679 5676 5673 5670 5667 5665 5663 5661 5658 5655 5654 5653 5650 5647 5646 5649 5653 5656 5657 5658 5658 5659
5733 5729 5728 5727 5725 5722 5720 5718 5715 5711 5708 5704 5700 5696 5692 5688 5683 5680 5678 5676 5674 5672 5669 5667 5664 5661 5658 5656 5654 5652 5649 5645 5645 5644 5641 5637 5637 5640 5645 5647 5649 5650 5651
5731 5726 5723 5721 5719 5717 5715 5713 5709 5705 5701 5697 5693 5688 5683 5678 5675 5672 5670 5669 5667 5665 5662 5660 5657 5654 5651 5649 5648 5646 5644 5640 5637 5638 5638 5636 5635 5632 5633 5637 5640 5642 5644
5728 5722 5719 5717 5714 5712 5709 5706 5702 5698 5695 5691 5687 5682 5676 5672 5669 5666 5663 5660 5658 5656 5654 5652 5650 5647 5644 5642 5641 5640 5637 5635 5633 5631 5631 5630 5630 5629 5627 5628 5631 5633 5636
5722 5717 5715 5712 5707 5705 5702 5698 5694 5691 5688 5685 5681 5676 5670 5665 5661 5658 5655 5653 5650 5648 5645 5643 5642 5639 5637 5636 5634 5633 5631 5629 5628 5627 5626 5624 5623 5623 5623 5622 5623 5625 5628
5717 5712 5708 5705 5702 5699 5695 5692 5688 5684 5681 5678 5674 5669 5664 5660 5656 5652 5648 5646 5642 5639 5638 5636 5634 5632 5630 5629 5627 5625 5624 5623 5622 5621 5620 5621 5620 5620 5619 5617 5617 5618 5620
5711 5707 5704 5700 5697 5694 5691 5687 5683 5678 5675 5671 5667 5663 5659 5654 5650 5647 5644 5640 5636 5633 5632 5630 5628 5626 5624 5623 5621 5619 5617 5617 5616 5616 5616 5615 5616 5616 5615 5614 5612 5611 5612
5704 5701 5698 5695 5693 5689 5686 5683 5678 5673 5670 5666 5661 5657 5653 5649 5645 5642 5638 5634 5631 5629 5627 5625 5622 5620 5618 5616 5614 5612 5611 5611 5610 5610 5610 5610 5611 5611 5611 5611 5610 5607 5605
5697 5695 5691 5688 5687 5684 5681 5677 5672 5668 5664 5660 5656 5652 5647 5644 5640 5636 5632 5629 5627 5624 5622 5619 5616 5614 5612 5610 5608 5606 5606 5605 5605 5604 5604 5604 5605 5606 5606 5606 5605 5604 5603
5690 5687 5685 5682 5680 5677 5673 5670 5665 5662 5658 5654 5650 5645 5641 5638 5634 5630 5627 5624 5622 5619 5617 5614 5611 5609 5606 5604 5602 5601 5601 5599 5598 5598 5599 5599 5599 5599 5600 5600 5599 5599 5598
5684 5681 5679 5675 5672 5670 5666 5663 5660 5657 5653 5648 5644 5640 5636 5632 5628 5624 5621 5619 5616 5614 5611 5608 5606 5604 5601 5599 5597 5596 5595 5593 5592 5592 5592 5592 5593 5592 5593 5593 5593 5593 5593
5679 5675 5672 5669 5666 5664 5661 5658 5655 5651 5648 5643 5639 5634 5630 5626 5623 5620 5617 5614 5611 5608 5606 5603 5601 5598 5596 5594 5593 5591 5590 5588 5587 5586 5586 5586 5586 5585 5586 5587 5588 5588 5589
5674 5670 5666 5663 5661 5658 5656 5653 5649 5646 5643 5638 5633 5628 5625 5621 5618 5615 5612 5609 5606 5603 5601 5599 5596 5594 5592 5590 5589 5587 5585 5583 5583 5582 5581 5580 5580 5580 5581 5582 5582 5583 5582
5669 5666 5661 5657 5655 5652 5650 5647 5644 5641 5638 5633 5628 5625 5621 5618 5614 5611 5608 5605 5602 5599 5597 5594 5592 5590 5588 5587 5584 5583 5582 5579 5578 5578 5577 5577 5577 5577 5577 5578 5577 5577 5576
5665 5662 5658 5654 5651 5649 5646 5642 5640 5637 5633 5629 5625 5622 5618 5614 5611 5608 5605 5601 5598 5596 5593 5591 5588 5586 5584 5582 5581 5579 5577 5576 5574 5573 5573 5574 5574 5574 5575 5576 5576 5575 5574
5662 5659 5655 5652 5649 5646 5643 5639 5637 5634 5630 5626 5622 5618 5615 5611 5608 5605 5602 5598 5595 5593 5590 5587 5584 5581 5580 5579 5578 5576 5574 5572 5571 5570 5570 5571 5572 5571 5571 5572 5573 5573 5573
5659 5656 5653 5649 5646 5643 5640 5636 5633 5630 5626 5623 5619 5616 5612 5608 5605 5601 5598 5595 5593 5590 5587 5584 5581 5579 5578 5577 5575 5574 5572 5570 5569 5568 5567 5567 5567 5568 5567 5568 5568 5569 5569
5658 5654 5651 5647 5644 5640 5636 5632 5629 5626 5623 5620 5617 5614 5610 5606 5602 5599 5596 5593 5591 5587 5585 5583 5580 5577 5576 5575 5573 5571 5568 5567 5566 5566 5565 5565 5564 5565 5564 5564 5563 5564 5566
5655 5651 5648 5644 5640 5637 5634 5629 5626 5623 5620 5618 5615 5612 5609 5605 5601 5597 5594 5592 5589 5586 5584 5582 5580 5577 5574 5573 5571 5569 5566 5564 5563 5563 5563 5563 5562 5561 5560 5559 5559 5559 5562
5653 5649 5645 5641 5637 5635 5632 5627 5623 5620 5619 5617 5614 5610 5608 5604 5600 5596 5593 5590 5587 5584 5582 5580 5578 5576 5574 5572 5570 5568 5564 5562 5561 5560 5560 5560 5560 5559 5558 5557 5556 5558 5559
5650 5646 5641 5637 5635 5634 5630 5625 5621 5619 5618 5615 5612 5609 5606 5603 5601 5595 5592 5589 5586 5582 5580 5577 5576 5575 5574 5572 5570 5567 5565 5562 5559 5559 5559 5559 5558 5558 5557 5556 5557 5558 5557
5647 5643 5639 5635 5633 5632 5629 5624 5621 5619 5616 5612 5610 5607 5605 5602 5599 5595 5591 5588 5585 5582 5579 5577 5575 5574 5573 5571 5570 5568 5566 5563 5560 5559 5558 5558 5558 5558 5558 5558 5558 5558 5557
5644 5641 5637 5633 5630 5629 5627 5624 5622 5619 5615 5611 5608 5606 5603 5601 5598 5595 5593 5589 5586 5583 5580 5578 5575 5574 5572 5571 5569 5567 5565 5563 5560 5558 5558 5558 5558 5558 5558 5558 5558 5558 5557
5643 5639 5635 5632 5630 5628 5626 5625 5622 5619 5614 5611 5608 5605 5603 5600 5598 5596 5593 5591 5589 5587 5583 5580 5578 5574 5572 5573 5571 5567 5564 5562 5559 5557 5556 5556 5556 5556 5557 5558 5558 5558 5557
5642 5638 5635 5632 5630 5629 5627 5625 5623 5619 5615 5611 5608 5605 5603 5601 5598 5595 5594 5594 5592 5591 5588 5585 5581 5579 5577 5575 5572 5568 5566 5563 5560 5556 5554 5554 5554 5554 5555 5555 5556 5557 5557